Wind_Speed
17 17 17 17 17 17 17 17 17 17 17 17 17 17 18 18 18 18 18 18 18 19 19 19 20 20 21 21 21 22 22 22 22 23 23 23 23 24
18 17 17 18 18 18 18 18 18 18 18 17 17 17 17 17 17 17 17 18 18 18 19 19 19 20 21 21 21 21 21 21 22 23 23 24 25 25
18 18 18 18 19 18 18 18 18 18 18 17 17 16 16 17 17 18 18 18 18 18 18 19 19 20 20 21 21 21 22 22 22 23 23 24 25 25
18 18 18 18 18 18 19 18 17 17 17 17 17 17 17 16 17 18 18 18 18 18 18 19 20 20 21 21 21 22 22 22 22 22 22 23 23 24
18 18 18 18 18 18 18 18 17 17 17 17 17 17 17 17 17 17 18 18 18 18 18 19 20 20 21 22 21 22 22 22 21 21 20 20 21 22
18 18 18 18 18 18 17 16 16 17 17 17 17 17 18 18 18 18 18 19 18 19 19 19 19 20 20 21 21 21 22 22 21 21 21 20 20 21
18 18 18 18 18 18 17 17 16 17 17 17 17 17 17 18 18 18 18 19 18 19 19 19 19 20 20 20 20 21 21 21 20 21 20 20 20 20
17 18 18 18 18 18 18 18 17 17 17 17 17 17 18 18 17 17 18 18 19 19 19 19 20 21 21 20 20 20 20 19 19 20 20 20 20 20
18 18 18 18 17 18 18 18 18 17 17 17 17 17 18 18 17 18 18 18 18 19 19 20 20 21 21 21 20 20 19 19 19 19 19 20 20 20
18 18 18 18 18 18 18 19 19 18 18 18 18 18 18 18 18 18 18 19 19 19 20 20 20 21 21 21 20 20 20 20 20 20 20 20 21 21
19 19 19 19 19 19 19 18 18 18 18 19 19 19 19 19 19 19 19 19 20 20 20 20 20 20 21 21 21 20 20 21 21 21 21 21 21 21
20 20 20 21 20 20 20 19 19 19 19 19 19 19 19 19 19 19 19 20 20 20 20 20 20 20 20 21 21 21 21 21 21 21 21 21 21 21
21 21 21 21 22 21 22 22 21 20 20 21 20 20 20 20 20 20 20 21 21 21 21 21 21 21 21 21 21 22 22 22 22 22 22 22 22 23
23 23 23 23 23 23 23 23 24 23 22 22 22 21 21 21 21 22 22 22 22 22 22 22 22 23 22 22 22 22 23 23 22 22 22 22 22 22
25 25 25 25 25 25 25 25 25 25 25 24 23 23 23 23 23 23 22 23 23 23 23 23 23 24 23 23 22 22 23 23 23 22 22 22 22 21
26 26 26 26 26 27 27 27 26 26 26 25 25 25 25 25 25 24 23 23 23 24 24 24 25 24 24 24 23 23 23 22 23 22 22 22 22 22
27 27 27 28 28 28 28 28 28 27 27 27 26 25 26 26 26 25 25 25 25 25 25 26 26 26 25 25 25 25 24 24 23 23 23 23 23 23
29 29 29 29 28 28 28 28 28 28 27 27 27 27 27 27 27 26 26 26 26 26 26 27 26 26 26 26 26 25 25 24 24 24 23 24 24 24
30 30 30 29 29 28 29 29 29 29 29 29 29 29 29 28 28 27 27 28 28 28 28 28 28 27 27 26 26 27 26 25 25 25 25 25 25 25
30 30 31 30 30 30 30 30 30 30 30 30 30 30 30 29 29 29 29 29 29 29 29 29 29 28 28 27 27 28 28 28 27 27 27 27 27 27
30 30 31 31 31 31 30 30 30 30 30 30 30 31 31 31 30 30 30 30 30 31 31 30 30 30 29 28 28 28 29 29 29 29 28 28 28 28
30 30 30 31 31 31 31 31 31 31 31 30 31 31 31 32 31 31 31 31 32 32 32 31 31 31 30 30 29 29 29 29 29 29 29 29 28 28
30 30 30 30 30 30 30 31 31 31 31 31 32 32 31 32 33 32 32 33 33 33 32 31 32 31 31 31 31 30 29 29 28 28 28 28 28 28
Wind_Direction
278 278 278 278 276 277 276 276 277 277 275 276 276 276 275 274 272 275 276 277 278 280 281 282 283 282 280 279 278 278 276 275 274 273 271 270 270 268
277 277 277 277 276 277 278 277 278 277 275 275 276 277 276 274 275 277 279 280 281 282 282 282 284 283 281 279 277 278 277 277 276 273 271 271 270 268
276 276 275 275 276 276 278 277 277 277 276 274 275 276 278 277 278 278 279 282 282 281 282 284 285 285 282 279 277 279 278 278 278 277 276 272 270 268
275 276 276 275 275 275 276 276 275 276 276 276 274 276 277 278 280 280 280 282 282 280 281 285 286 286 283 280 278 280 279 279 279 279 277 273 270 269
275 277 276 274 274 275 275 273 274 276 275 276 276 275 275 275 279 279 278 282 283 282 282 286 288 289 285 281 279 280 281 280 280 279 278 276 272 270
278 276 275 273 274 275 273 272 274 274 275 276 276 276 276 276 278 278 279 281 284 285 286 287 289 290 289 285 282 281 281 280 280 279 278 276 273 272
279 276 276 275 273 273 271 272 274 273 274 274 275 276 278 279 279 279 280 282 286 286 286 288 289 289 291 289 287 286 284 282 281 280 279 277 275 273
282 281 277 275 272 272 272 273 274 275 274 273 273 276 280 281 282 283 282 283 285 285 287 288 291 292 291 290 291 289 285 283 282 281 279 279 278 275
281 280 277 275 275 274 273 275 276 275 274 272 272 277 280 280 281 283 283 284 285 286 288 290 290 291 290 290 291 290 287 286 285 284 282 280 279 279
280 278 277 276 275 274 272 274 275 276 277 275 275 277 279 279 281 282 282 285 287 288 290 291 291 290 288 289 289 287 286 286 285 284 283 280 280 279
279 277 275 274 274 274 272 272 273 275 276 276 276 275 277 280 282 282 283 284 287 288 290 290 291 290 288 289 288 287 287 286 286 286 284 281 279 279
277 277 275 273 271 273 273 273 273 273 275 276 277 276 277 279 282 282 284 286 289 290 291 291 291 291 289 289 288 287 287 288 288 287 285 282 280 280
274 275 275 274 273 273 272 272 272 273 275 275 276 276 277 279 281 283 284 285 288 290 291 291 291 292 292 290 288 288 288 288 289 288 287 284 281 281
275 275 274 273 274 273 270 271 271 272 275 275 275 276 277 278 280 281 282 284 286 288 289 290 291 292 291 289 288 288 287 287 287 287 286 285 284 283
277 276 275 274 273 272 271 271 272 272 274 275 275 275 277 279 280 281 282 284 286 288 289 289 291 293 292 290 289 288 287 286 286 286 286 285 284 283
277 276 276 275 274 272 270 271 271 272 275 275 274 274 276 278 279 278 279 282 285 287 288 288 289 290 290 290 289 288 287 286 286 285 285 285 284 281
276 276 276 275 275 272 271 270 269 269 271 273 272 273 274 275 276 275 277 280 283 285 287 288 288 288 288 288 287 287 286 285 284 283 283 283 285 283
275 275 276 276 275 272 270 269 269 270 270 270 271 271 274 276 275 274 276 279 282 284 285 286 286 286 286 286 285 285 285 283 282 281 282 283 283 282
275 275 275 275 273 271 270 269 269 269 270 271 271 272 273 274 273 273 275 277 279 281 283 285 285 285 285 285 284 284 284 282 281 280 281 281 281 282
276 276 274 272 271 270 270 270 269 269 269 271 273 274 274 273 273 274 275 276 278 280 283 284 284 283 284 284 283 283 282 281 280 279 279 279 279 280
277 276 272 270 269 269 269 268 268 269 270 271 272 273 274 274 274 275 276 277 278 280 282 283 282 282 282 283 283 282 281 281 280 279 279 278 277 278
276 275 274 271 268 267 268 269 269 269 269 270 271 272 272 274 275 277 278 279 280 281 282 281 280 280 280 280 280 280 280 280 280 279 279 278 277 276
276 275 274 272 269 269 269 270 270 270 270 270 270 270 272 274 277 277 278 279 279 280 280 280 280 279 279 280 280 279 279 279 280 280 280 280 279 277
Height
5788 5788 5787 5787 5787 5786 5786 5786 5787 5787 5787 5786 5787 5787 5788 5788 5788 5788 5788 5788 5788 5788 5787 5787 5786 5786 5785 5785 5784 5783 5782 5782 5781 5781 5781 5781 5781 5781
5783 5783 5782 5782 5782 5782 5781 5781 5781 5781 5781 5781 5781 5782 5783 5783 5783 5783 5783 5783 5783 5782 5782 5781 5780 5780 5779 5778 5777 5776 5776 5775 5774 5774 5773 5773 5772 5772
5778 5777 5777 5777 5777 5776 5776 5775 5775 5775 5775 5776 5776 5777 5778 5778 5778 5778 5778 5778 5777 5777 5776 5775 5775 5774 5772 5772 5771 5770 5769 5768 5767 5766 5765 5764 5764 5764
5772 5772 5772 5772 5772 5771 5771 5770 5770 5771 5771 5771 5772 5772 5773 5773 5773 5773 5773 5773 5772 5771 5770 5770 5769 5768 5766 5765 5764 5763 5762 5761 5760 5758 5757 5756 5756 5756
5767 5767 5766 5766 5766 5766 5766 5766 5766 5766 5766 5766 5767 5767 5768 5768 5768 5768 5768 5767 5767 5766 5765 5764 5763 5761 5760 5759 5758 5756 5755 5754 5753 5751 5750 5749 5748 5748
5762 5762 5761 5761 5761 5761 5761 5761 5761 5762 5762 5762 5762 5762 5763 5763 5763 5763 5763 5762 5762 5761 5760 5759 5757 5756 5754 5753 5752 5750 5749 5748 5746 5745 5744 5744 5743 5743
5757 5757 5756 5756 5756 5756 5756 5756 5756 5757 5757 5757 5758 5758 5758 5758 5758 5758 5757 5757 5756 5755 5755 5754 5752 5750 5748 5747 5745 5744 5743 5742 5740 5739 5738 5738 5737 5737
5752 5752 5752 5751 5751 5751 5751 5751 5751 5752 5752 5752 5753 5753 5753 5753 5753 5752 5752 5752 5751 5751 5749 5748 5746 5744 5743 5741 5739 5738 5737 5736 5734 5733 5732 5732 5731 5731
5747 5747 5747 5746 5746 5746 5746 5746 5746 5746 5747 5747 5748 5748 5748 5748 5748 5747 5746 5746 5745 5744 5743 5742 5740 5738 5737 5735 5733 5732 5731 5729 5728 5727 5726 5725 5725 5724
5742 5742 5742 5741 5741 5741 5741 5742 5742 5741 5742 5742 5742 5742 5742 5742 5742 5741 5741 5740 5739 5738 5737 5736 5734 5732 5730 5729 5727 5726 5725 5723 5722 5721 5720 5719 5718 5718
5736 5736 5736 5736 5736 5736 5736 5736 5737 5737 5737 5737 5737 5737 5736 5736 5736 5735 5735 5735 5734 5732 5731 5730 5728 5726 5724 5723 5721 5720 5718 5717 5716 5714 5713 5712 5711 5711
5730 5730 5730 5730 5730 5730 5730 5731 5731 5731 5731 5731 5731 5731 5731 5730 5730 5729 5729 5728 5727 5726 5725 5723 5722 5720 5719 5716 5715 5713 5712 5710 5709 5708 5706 5705 5704 5704
5724 5724 5724 5724 5724 5724 5724 5725 5725 5725 5725 5725 5725 5725 5725 5724 5724 5723 5722 5722 5721 5719 5718 5717 5715 5713 5712 5710 5708 5706 5705 5703 5702 5700 5699 5698 5697 5696
5717 5717 5717 5717 5717 5717 5717 5718 5718 5718 5718 5719 5719 5719 5719 5718 5717 5716 5716 5715 5713 5712 5711 5710 5708 5706 5705 5703 5702 5700 5698 5696 5695 5694 5692 5691 5690 5689
5709 5709 5709 5709 5709 5709 5710 5710 5710 5711 5711 5711 5711 5711 5711 5711 5710 5709 5709 5708 5706 5705 5703 5702 5701 5699 5697 5696 5694 5693 5691 5689 5688 5687 5685 5684 5683 5682
5701 5701 5701 5701 5702 5702 5702 5702 5702 5703 5703 5703 5703 5703 5703 5703 5703 5702 5701 5700 5699 5698 5696 5694 5693 5691 5690 5688 5687 5685 5684 5682 5681 5679 5678 5677 5676 5675
5693 5693 5693 5693 5693 5693 5693 5693 5694 5694 5695 5695 5695 5695 5695 5695 5694 5693 5693 5692 5691 5690 5689 5687 5685 5683 5682 5680 5679 5677 5676 5675 5673 5672 5671 5670 5669 5668
5684 5684 5684 5684 5684 5684 5684 5685 5685 5686 5686 5686 5686 5686 5686 5686 5685 5685 5684 5684 5683 5682 5680 5679 5677 5675 5674 5672 5671 5669 5668 5666 5666 5665 5664 5663 5662 5661
5675 5675 5675 5675 5675 5675 5675 5675 5676 5676 5677 5677 5677 5677 5677 5677 5676 5676 5675 5675 5674 5673 5671 5670 5668 5667 5666 5664 5662 5660 5659 5658 5657 5657 5656 5655 5654 5653
5665 5665 5665 5665 5665 5665 5666 5666 5666 5667 5667 5667 5668 5667 5667 5667 5667 5666 5666 5665 5664 5663 5662 5661 5659 5658 5656 5655 5654 5652 5650 5649 5648 5648 5647 5646 5645 5645
5655 5655 5654 5655 5655 5655 5656 5656 5656 5657 5657 5657 5657 5657 5657 5657 5657 5656 5656 5655 5654 5653 5652 5651 5649 5648 5647 5646 5645 5643 5642 5640 5639 5638 5638 5637 5637 5636
5645 5645 5644 5644 5645 5645 5646 5646 5646 5647 5647 5647 5647 5647 5647 5647 5646 5646 5645 5645 5644 5643 5642 5640 5639 5637 5637 5636 5635 5634 5632 5631 5629 5628 5628 5628 5627 5627
5635 5635 5634 5634 5635 5635 5636 5636 5636 5637 5637 5637 5637 5637 5636 5636 5636 5635 5635 5634 5633 5632 5630 5629 5628 5627 5626 5625 5624 5623 5622 5621 5621 5620 5619 5617 5617 5617